www.pogodaiklimat.ru
ПОГОДА в Бодене
Время
(UTC), дата
01 7.12
02 7.12
03 7.12
04 7.12
05 7.12
06 7.12
07 7.12
08 7.12
09 7.12
10 7.12
11 7.12
12 7.12
13 7.12
14 7.12
15 7.12
16 7.12
17 7.12
18 7.12
19 7.12
20 7.12
21 7.12
22 7.12
23 7.12
00 8.12
01 8.12
02 8.12
03 8.12
04 8.12
05 8.12
06 8.12
07 8.12
08 8.12
09 8.12
10 8.12
11 8.12
12 8.12
13 8.12
14 8.12
15 8.12
16 8.12
17 8.12
18 8.12
19 8.12
20 8.12
21 8.12
22 8.12
23 8.12
00 9.12
01 9.12
02 9.12
03 9.12
04 9.12
05 9.12
06 9.12
07 9.12
08 9.12
09 9.12
10 9.12
11 9.12
12 9.12
13 9.12
14 9.12
15 9.12
16 9.12
17 9.12
18 9.12
19 9.12
20 9.12
21 9.12
22 9.12
23 9.12
00 10.12
01 10.12
02 10.12
03 10.12
04 10.12
05 10.12
06 10.12
07 10.12
08 10.12
09 10.12
10 10.12
11 10.12
12 10.12
13 10.12
14 10.12
15 10.12
16 10.12
17 10.12
18 10.12
19 10.12
20 10.12
21 10.12
22 10.12
23 10.12
00 11.12
01 11.12
02 11.12
03 11.12
04 11.12
05 11.12
06 11.12
07 11.12
08 11.12
09 11.12
10 11.12
11 11.12
12 11.12
13 11.12
14 11.12
15 11.12
16 11.12
17 11.12
18 11.12
19 11.12
20 11.12
21 11.12
22 11.12
23 11.12
00 12.12
01 12.12
02 12.12
03 12.12
04 12.12
05 12.12
06 12.12
07 12.12
08 12.12
09 12.12
10 12.12
11 12.12
12 12.12
13 12.12
14 12.12
15 12.12
16 12.12
17 12.12
18 12.12
19 12.12
20 12.12
21 12.12
22 12.12
23 12.12
00 13.12
01 13.12
02 13.12
03 13.12
04 13.12
05 13.12
06 13.12
07 13.12
08 13.12
09 13.12
10 13.12
11 13.12
12 13.12
13 13.12
14 13.12
15 13.12
16 13.12
17 13.12
18 13.12
19 13.12
20 13.12
21 13.12
22 13.12
23 13.12
00 14.12
01 14.12
Ветер
(напр.,м/с)
Видим. Явления Облачность Т
(С)
Тd
(С)
f
(%)
Тe
(С)
Тes
(С)
Комфортность P
(гПа)
Po
(гПа)
Тmin
(С)
Tmax
(С)
R
(мм)
R24
(мм)
S
(см)
В 1-1
{1}
50 км 10/0
[]
-9.2 -10.7 89 -12 -12 980.4 977.3
штиль 0-1
{1}
50 км ясно -9.7 -11.2 89 -10 -10 980.4 977.3
штиль 0
{1}
50 км ясно -10.6 -12.1 89 -11 -11 980.7 977.6
штиль 0-1
{1}
50 км ясно -10.9 -12.5 88 -11 -11 980.9 977.8
штиль 0 50 км ясно -11.8 -13.6 86 -12 -12 980.8 977.7
штиль 0-1
{2}
50 км ясно -12.0 -13.7 87 -12 -12 981.1 978.0 -12.3 -7.4
штиль 0-1
{1}
50 км ясно -12.1 -13.8 87 -12 -12 981.1 978.0
штиль 0-1
{1}
50 км ясно -12.1 -13.9 86 -12 -12 981.5 978.4
штиль 0
{1}
50 км ясно -12.2 -14.0 86 -12 -12 981.7 978.6
штиль 0-1
{1}
50 км ясно -11.9 -13.8 86 -12 -12 981.5 978.4
штиль 0
{2}
45 км ясно -11.9 -13.6 87 -12 -12 981.1 978.0
штиль 0-1
{1}
45 км ясно -12.5 -14.3 86 -13 -13 980.7 977.6
штиль 0
{1}
50 км ясно -12.9 -14.7 86 -13 -13 980.7 977.6
штиль 0-1
{1}
50 км ясно -13.2 -15.1 86 -13 -13 980.5 977.4
штиль 0-1
{1}
45 км ясно -13.4 -15.3 86 -13 -13 980.3 977.2
штиль 0
{1}
45 км ясно -13.8 -15.7 86 -14 -14 980.0 976.9
штиль 0-1
{1}
19 км слаб. ливневой снег ясно -14.1 -16.1 85 -14 -14 979.8 976.7
штиль 0-1
{1}
40 км {ливн. осадки, снег} ясно -14.1 -16.1 85 -14 -14 979.6 976.5 -14.8 -11.4
штиль 0
{1}
45 км в посл. час снег {ливн. осадки} ясно -14.5 -16.5 85 -15 -15 979.2 976.1
штиль 0
{1}
45 км {ливн. осадки, снег} ясно -15.1 -17.2 84 -15 -15 979.3 976.1
штиль 0-1
{1}
40 км {ливн. осадки, снег} 3/3 60 м
[]
-15.3 -17.4 84 -15 -15 979.3 976.1
З 1-1
{1}
50 км {ливн. осадки, снег} 3/3 60 м
[]
-15.6 -17.8 83 -18 -18 979.3 976.1
З 1-1
{1}
50 км {ливн. осадки, снег} ясно -15.4 -17.5 84 -18 -18 979.3 976.1
З 1-1
{1}
50 км {ливн. осадки, снег} ясно -15.6 -17.7 84 -18 -18 979.5 976.3
штиль 0-1
{2}
50 км 9/9 700 м
[]
-14.9 -16.9 85 -15 -15 979.9 976.7
СЗ 2-3
{3}
50 км 9/9 1140 м
[]
-12.9 -14.7 86 -18 -18 980.3 977.2
СЗ 2-2
{3}
50 км 9/9 1500 м
[]
-11.5 -13.5 85 -16 -16 980.1 977.0
З 2-2
{3}
50 км 9/9 1350 м
[]
-11.4 -13.3 86 -16 -16 980.5 977.4
З 1-2
{3}
50 км ясно -10.9 -12.9 85 -13 -13 980.7 977.6
З 2-3
{3}
50 км ясно -10.5 -12.6 85 -15 -15 980.8 977.7 -15.8 -10.4
З 1-2
{4}
50 км ясно -11.0 -13.1 84 -13 -13 980.8 977.7
З 1-2
{2}
50 км 8/8 1350 м
[]
-10.7 -12.6 86 -13 -13 980.9 977.8
З 2-3
{3}
50 км ясно -10.0 -11.9 86 -15 -15 980.8 977.7
З 1-2
{4}
50 км ясно -10.1 -12.0 86 -12 -12 980.7 977.6
З 2-2
{2}
50 км ясно -10.8 -12.5 87 -15 -15 980.9 977.8
З 1-2
{3}
50 км ясно -11.0 -12.8 87 -13 -13 980.8 977.7
З 2-2
{2}
50 км ясно -11.8 -13.6 86 -16 -16 980.6 977.5
штиль 0-2
{2}
50 км ясно -12.9 -14.7 86 -13 -13 980.3 977.2
СЗ 1-1
{2}
50 км 6/6 540 м
[]
-13.1 -14.9 86 -15 -15 980.0 976.9
З 1-1
{1}
45 км 10/10 400 м
[]
-11.9 -13.7 86 -14 -14 979.9 976.8
СЗ 1-2
{2}
19 км 10/10 400 м
[]
-11.3 -13.2 86 -14 -14 979.4 976.3
СЗ 1-2
{2}
20 км 10/10 420 м
[]
-10.6 -12.4 87 -13 -13 979.1 976.0 -13.6 -9.5
штиль 0-1
{2}
35 км 10/10 330 м
[]
-10.6 -12.3 87 -11 -11 978.4 975.3
СЗ 1-2
{2}
2200 м снежные кристаллы 10/10 60 м
[]
-10.1 -11.8 87 -12 -12 978.2 975.1
штиль 0-1
{1}
2400 м снежные кристаллы 10/10 60 м
[]
-9.8 -11.4 88 -10 -10 977.9 974.8
штиль 0-1
{1}
3200 м слаб. ливневой снег 10/10 90 м
[]
-9.4 -10.9 89 -10 -10 977.0 973.9
штиль 0-1
{1}
5000 м слаб. ливневой снег 10/10 60 м
[]
-8.9 -10.4 89 -9 -9 976.3 973.2 0.1
СВ 1-2
{2}
10 км в посл. час снег {ливн. осадки, морось} 10/10 90 м
[]
-7.7 -9.0 90 -10 -10 975.6 972.5
СВ 1-2
{2}
45 км {снег} 10/10 180 м
[]
-7.3 -8.7 90 -10 -10 975.2 972.1
С 1-3
{3}
50 км 10/10 210 м
[]
-6.9 -8.1 91 -9 -9 974.6 971.5
С 1-3
{3}
45 км 10/10 240 м
[]
-6.5 -7.9 90 -9 -9 974.0 970.9
С 1-2
{4}
50 км 10/10 240 м
[]
-6.0 -7.3 90 -8 -8 973.7 970.6
С 1-3
{4}
50 км 10/10 300 м
[]
-5.7 -7.2 89 -8 -8 974.0 970.9
С 2-4
{4}
50 км 10/10 360 м
[]
-5.2 -6.9 88 -10 -10 974.3 971.2 -10.8 -5.2
С 2-4
{4}
50 км 10/10 400 м
[]
-4.7 -6.6 87 -9 -9 975.0 971.9
С 2-5
{5}
10 км слаб. снег 10/10 570 м
[]
-4.4 -6.5 85 -9 -9 975.8 972.7
СЗ 2-4
{5}
21 км снежные зёрна 10/10 500 м
[]
-4.4 -6.2 87 -9 -9 976.7 973.6
СЗ 2-5
{6}
8000 м слаб. снег 10/10 660 м
[]
-4.4 -6.3 87 -9 -9 977.5 974.4 0.1
СЗ 2-5
{5}
8000 м снежные зёрна 10/10 450 м
[]
-4.7 -6.6 87 -9 -9 978.6 975.5
СЗ 2-4
{4}
8000 м слаб. снег 10/10 540 м
[]
-5.0 -6.8 87 -9 -9 979.6 976.5
СЗ 2-4
{5}
50 км в посл. час снег 10/10 800 м
[]
-5.4 -7.6 84 -10 -10 980.9 977.8
СЗ 2-4
{4}
50 км {снег} 9/9 600 м
[]
-5.6 -7.9 84 -10 -10 982.0 978.9
З 2-3
{4}
50 км {снег} 9/9 1050 м
[]
-5.9 -8.2 84 -10 -10 983.2 980.1
З 2-4
{4}
50 км {снег} 6/6 720 м
[]
-6.2 -8.5 84 -11 -11 984.6 981.5
СЗ 3-5
{5}
45 км 10/10 1500 м
[]
-6.1 -8.5 83 -12 -12 985.8 982.7
СЗ 3-5
{6}
50 км в посл. час снег {ливн. осадки} 10/10 1410 м
[]
-5.8 -8.4 82 -11 -11 987.2 984.1 -6.4 -4.3
З 3-4
{6}
50 км {снег} 3/0
[]
-6.2 -8.8 82 -12 -12 988.5 985.4
З 3-4
{5}
50 км 1/0
[]
-6.2 -9.3 79 -12 -12 989.8 986.7
З 2-3
{4}
50 км 4/0
[]
-6.6 -9.7 79 -11 -11 991.2 988.1
З 3-5
{5}
50 км 6/0
[]
-6.9 -9.6 81 -13 -13 992.6 989.5
З 3-4
{5}
50 км 6/0
[]
-7.3 -9.6 84 -13 -13 994.0 990.8
З 2-4
{5}
50 км ясно -7.6 -9.9 84 -12 -12 995.2 992.0
З 1-3
{4}
50 км 1/0
[]
-8.3 -10.4 85 -11 -11 996.6 993.4
З 1-4
{4}
50 км ясно -8.0 -10.3 83 -10 -10 998.0 994.8
З 2-5
{5}
50 км ясно -8.1 -10.9 80 -13 -13 999.4 996.2
З 3-6
{6}
50 км ясно -8.0 -11.3 77 -14 -14 1000.6 997.4
З 3-5
{6}
50 км ясно -8.6 -11.9 77 -14 -14 1001.7 998.5
З 2-3
{5}
50 км 8/8 1500 м
[]
-9.2 -12.3 78 -14 -14 1002.9 999.7 -9.4 -5.8
З 2-3
{3}
50 км 1/1 1500 м
[]
-9.0 -12.3 77 -13 -13 1004.0 1000.8
З 2-3
{4}
50 км 5/0 2000 м
[]
-9.7 -12.7 79 -14 -14 1005.1 1001.9
З 2-3
{3}
50 км ясно -10.4 -13.2 80 -15 -15 1005.9 1002.7
З 2-4
{4}
50 км 6/0 2000 м
[]
-11.0 -13.8 80 -16 -16 1006.6 1003.4
З 2-2
{4}
50 км ясно -10.9 -13.8 79 -15 -15 1007.2 1004.0
З 3-4
{4}
50 км 5/5 1500 м
[]
-11.3 -14.2 79 -17 -17 1007.8 1004.6
СЗ 1-3
{4}
50 км ясно -12.0 -14.5 82 -14 -14 1008.7 1005.5
З 1-2
{2}
50 км ясно -14.3 -16.4 84 -17 -17 1008.9 1005.7
штиль 0-1
{2}
12 км слаб. снег ясно -14.9 -17.0 84 -15 -15 1009.4 1006.1
З 1-2
{2}
50 км в посл. час снег {ливн. осадки} ясно -16.2 -18.4 83 -19 -19 1009.6 1006.3
З 1-1
{1}
45 км слаб. ливневой снег ясно -17.4 -19.8 82 -20 -20 1009.5 1006.2
З 1-2
{2}
45 км в посл. час зёрна {ливн. осадки} ясно -16.6 -18.9 82 -19 -19 1009.1 1005.8 -17.8 -8.8
З 1-2
{2}
45 км в посл. час снег {ливн. осадки, морось} ясно -18.0 -20.5 81 -21 -21 1009.2 1005.9
З 1-2
{2}
50 км в посл. час зёрна {ливн. осадки} ясно -18.3 -20.8 81 -21 -21 1008.9 1005.6
З 1-1
{2}
50 км в посл. час снег {ливн. осадки, морось} 1/1 30 м
[]
-17.8 -20.2 81 -21 -21 1008.5 1005.2
В 1-1
{1}
40 км в посл. час зёрна {ливн. осадки} ясно -16.9 -19.2 82 -20 -20 1007.5 1004.2
СВ 1-2
{2}
50 км {ливн. осадки, морось} 4/0
[]
-16.2 -18.5 82 -19 -19 1006.7 1003.4
В 1-2
{2}
50 км {ливн. осадки, морось} 10/10 600 м
[]
-15.5 -17.7 83 -18 -18 1005.8 1002.6
СВ 1-1
{2}
2100 м слаб. снег 10/10 450 м
[]
-14.5 -16.7 83 -17 -17 1004.6 1001.4 0.1
В 1-2
{2}
3500 м слаб. снег ?/? -13.2 -15.2 85 -16 -16 1002.7 999.5 0.1
В 1-2
{2}
2200 м слаб. снег ?/? -11.7 -13.6 86 -14 -14 1000.1 996.9 0.3
ЮВ 5-9
{9}
1400 м снег ?/? -1.2 -2.2 93 -8 -8 997.9 994.8 0.9
ЮВ 5-9
{9}
600 м снег ?/? -0.9 -1.9 93 -7 -7 996.1 993.0 1
ЮВ 6-10
{10}
800 м снег ?/? -0.9 -1.9 93 -8 -8 994.5 991.4 -18.4 -0.8 1
ЮВ 5-11
{12}
1400 м слаб. снег ?/? -0.5 -1.5 93 -7 -7 993.3 990.2 0.6
Ю 7-13
{13}
1700 м слаб. снег ?/? -0.3 -1.3 93 -8 -8 991.9 988.8 0.3
Ю 6-11
{13}
3000 м слаб. снег 10/10 270 м
[]
0.0 -1.1 92 -7 -7 990.8 987.7 0.1
Ю 6-11
{11}
6000 м слаб. снег 10/10 240 м
[]
+0.5 -0.6 92 -6 -6 989.6 986.5 0.1
Ю 4-8
{11}
11 км слаб. дождь со снегом 10/10 210 м
[]
+0.7 -0.5 92 -5 -5 988.9 985.8
Ю 3-8
{8}
6000 м слаб. ледяной дождь 10/10 240 м
[]
+0.8 -0.4 92 -4 -4 988.2 985.1 0.3
Ю 4-7
{7}
10 км слаб. снег 10/10 240 м
[]
+1.0 -0.3 91 -4 -4 987.9 984.8 0.3
Ю 3-6
{7}
35 км слаб. дождь со снегом 10/10 240 м
[]
+1.0 -0.3 91 -4 -4 987.9 984.8 0.2
Ю 2-4
{6}
30 км снежные зёрна 10/10 240 м
[]
+0.9 -0.3 92 -3 -3 988.5 985.4
ЮВ 2-3
{4}
50 км слаб. дождь 10/10 240 м
[]
+0.9 -0.2 92 -3 -3 989.2 986.1 0.1
Ю 2-2
{4}
50 км {снег, дождь} ясно +0.4 -0.6 93 -3 -3 990.1 987.0
ЮЗ 2-4
{5}
50 км {снег, дождь} ясно +0.7 -1.1 88 -3 -3 991.5 988.4 -0.9 +1.3
Ю 2-3
{5}
50 км ясно -0.1 -1.2 92 -4 -4 992.7 989.6
Ю 3-4
{4}
50 км ясно -0.3 -1.5 92 -5 -5 993.8 990.7
В 1-2
{4}
50 км 1/0 2000 м
[]
-1.5 -2.7 92 -4 -4 994.1 991.0
штиль 0-2
{3}
35 км 8/8 120 м
[]
-1.8 -2.5 95 -3 -3 994.5 991.4
Ю 3-5
{5}
50 км 10/10 150 м
[]
-0.6 -1.4 94 -6 -6 995.0 991.9
Ю 2-3
{5}
50 км 10/10 210 м
[]
-0.1 -1.2 92 -4 -4 995.4 992.3
Ю 2-4
{4}
50 км 10/10 240 м
[]
+0.1 -1.2 91 -4 -4 995.5 992.4
ЮВ 1-3
{4}
50 км 10/10 270 м
[]
+0.3 -1.1 90 -2 -2 995.5 992.4
Ю 1-5
{5}
50 км 10/10 300 м
[]
+0.4 -1.0 90 -2 -2 995.2 992.1
ЮВ 1-3
{5}
8000 м слаб. дождь со снегом {осадки} 10/10 240 м
[]
+0.3 -0.9 92 -2 -2 995.2 992.1
В 1-2
{3}
35 км слаб. снег {осадки} 10/10 180 м
[]
+0.1 -0.9 93 -2 -2 995.2 992.1
ЮВ 2-3
{3}
50 км в посл. час снег 10/10 270 м
[]
+0.2 -0.8 93 -4 -4 994.9 991.8 -3.0 +0.8
ЮВ 1-3
{3}
45 км {снег, морось} 10/10 300 м
[]
+0.8 -0.5 91 -1 -1 995.1 992.0
В 1-2
{3}
45 км {снег, морось} 10/10 570 м
[]
+1.1 -0.4 90 -1 -1 995.3 992.2
ЮВ 1-3
{3}
45 км {снег, морось} 10/10 540 м
[]
+1.1 -0.3 90 -1 -1 995.5 992.4
ЮВ 1-3
{3}
35 км {снег, морось} 10/10 600 м
[]
+1.3 -0.2 90 -1 -1 995.4 992.3
ЮВ 2-2
{3}
40 км {снег, морось} 10/10 630 м
[]
+1.4 -0.2 89 -2 -2 995.2 992.1
ЮВ 2-4
{4}
35 км {снег, морось} 10/10 630 м
[]
+1.4 -0.1 90 -2 -2 995.1 992.0
ЮВ 2-3
{4}
18 км 10/10 480 м
[]
+1.7 0.0 88 -2 -2 994.7 991.6
ЮВ 2-4
{4}
27 км 10/10 300 м
[]
+1.4 +0.2 92 -2 -2 994.8 991.7
Ю 2-4
{4}
20 км 10/10 270 м
[]
+1.8 +0.5 91 -2 -2 994.6 991.5
ЮВ 2-4
{4}
18 км 10/10 210 м
[]
+1.8 +0.7 92 -2 -2 994.5 991.4
ЮВ 2-4
{4}
19 км 10/10 240 м
[]
+1.8 +0.6 92 -2 -2 994.1 991.0
ЮВ 2-4
{5}
13 км 10/10 210 м
[]
+1.6 +0.6 93 -2 -2 993.9 990.8 +0.2 +2.0
ЮВ 1-2
{3}
16 км 10/10 180 м
[]
+1.6 +0.6 93 -0 -0 993.8 990.7
ЮВ 2-4
{4}
23 км 10/10 210 м
[]
+1.8 +0.7 92 -2 -2 993.7 990.6
Ю 2-4
{5}
19 км 10/10 180 м
[]
+1.8 +0.6 92 -2 -2 993.3 990.2
Ю 2-4
{4}
35 км 10/10 180 м
[]
+1.8 +0.7 92 -2 -2 993.2 990.1
ЮВ 2-4
{4}
16 км 10/10 90 м
[]
+1.5 +0.7 94 -2 -2 993.0 989.9
ЮВ 2-4
{4}
50 км 10/10 150 м
[]
+1.1 +0.1 93 -2 -2 992.7 989.6
Ю 2-5
{5}
45 км 10/10 150 м
[]
+0.9 -0.1 93 -3 -3 992.4 989.3
Ю 2-5
{5}
40 км 10/10 150 м
[]
+0.8 -0.3 92 -3 -3 992.4 989.3
ЮВ 2-4
{5}
12 км слаб. дождь со снегом 10/10 180 м
[]
+0.5 -0.5 93 -3 -3 992.2 989.1 0.2
Ю 2-4
{4}
7000 м слаб. снег {дождь} 10/10 180 м
[]
+0.5 -0.5 93 -3 -3 992.2 989.1
Ю 2-4
{4}
6000 м слаб. дождь со снегом 10/10 240 м
[]
+0.4 -0.4 94 -3 -3 992.1 989.0 0.4
Ю 2-4
{5}
9000 м слаб. дождь со снегом 10/10 210 м
[]
+0.5 -0.5 93 -3 -3 992.5 989.4 +0.3 +1.9
Ю 3-4
{4}
50 км в посл. час снег 10/10 240 м
[]
+0.6 -0.5 92 -4 -4 992.8 989.7 0.1
Ю 2-3
{4}
50 км {снег, осадки} 10/10 180 м
[]
+0.7 -0.4 92 -3 -3 993.7 990.6
Ю 2-4
{4}
45 км {снег, осадки} 10/10 180 м
[]
+0.6 -0.6 92 -3 -3 994.0 990.9
ЮЗ 2-5
{5}
45 км {снег, осадки} 10/10 180 м
[]
+0.6 -0.6 92 -3 -3 994.5 991.4
ЮЗ 2-5
{5}
50 км {снег, осадки} 10/10 210 м
[]
+0.7 -0.6 91 -3 -3 994.8 991.7
Ю 1-3
{4}
50 км {снег, осадки} 10/10 330 м
[]
+0.8 -0.6 90 -1 -1 995.4 992.3
В 1-1
{3}
50 км 10/10 360 м
[]
+0.7 -0.6 91 -1 -1 995.7 992.6
ЮВ 1-2
{2}
40 км 10/10 720 м
[]
+0.4 -0.6 93 -2 -2 996.2 993.1
ЮВ 2-2
{2}
45 км 9/9 450 м
[]
+0.4 -0.5 94 -3 -3 996.7 993.6
ЮВ 2-3
{3}
45 км {ливн. осадки} 10/10 270 м
[]
+0.6 -0.4 93 -3 -3 996.9 993.8
Ю 2-4
{4}
45 км {ливн. осадки} 10/10 1500 м
[]
+0.8 -0.4 92 -3 -3 997.2 994.1
Ю 3-6
{6}
50 км {ливн. осадки} 10/10 330 м
[]
+0.9 -0.5 90 -4 -4 997.5 994.4 +0.3 +1.0
ЮВ 1-3
{5}
50 км 10/10 840 м
[]
+0.6 -0.6 92 -1 -1 998.0 994.9
В 1-2
{2}
45 км 10/10 210 м
[]
+0.4 -0.7 92 -2 -2 998.4 995.3
В 1-2
{2}
45 км 10/10 240 м
[]
+0.5 -0.6 92 -2 -2 998.7 995.6
В 1-2
{2}
45 км слаб. ливневой дождь {осадки} 10/10 180 м
[]
+0.7 -0.3 93 -1 -1 999.1 996.0
В 1-2
{3}
50 км {ливн. осадки, осадки} 10/10 400 м
[]
+0.8 -0.7 90 -1 -1 999.4 996.3
В 1-1
{2}
50 км {ливн. осадки, осадки} 10/10 660 м
[]
+0.8 -0.7 90 -1 -1 999.8 996.7
В 1-2
{2}
45 км 10/10 180 м
[]
+0.5 -0.6 92 -2 -2 999.9 996.8
Местоположение метеостанции Боден (Швеция): широта 65.82 долгота 21.70 высота над уровнем моря 18 м.
В архиве по умолчанию представлена погода в Бодене за последнюю неделю. Архивные данные за месяц целиком и за предыдущие месяцы, начиная с января 2011 года, Вы можете получить, выбрав интересующий диапазон дат из раскрывающегося списка и нажав кнопку "Найти!".
*Определитесь, кто Вы:
Внимание! Время в таблицах - всемирное. Для получения местного времени необходимо прибавить поправку, которая равна 1 ч.
Смотрите также архив погоды в соседних городах и на ближайших метеорологических станциях:
Партнеры нашего сайта:      
Пояснения к столбцам:
  • Ветер - указаны скорость ветра в м/с - средняя за 10 мин, порывы в срок и между сроками (в фигурных скобках) и направление, откуда дует ветер: С - северный,
  • СВ - северо-восточный, В - восточный, ЮВ - юго-восточный, Ю - южный, ЮЗ - юго-западный, З - западный, СЗ - северо-западный.
  • Видимость - горизонтальная дальность видимости в метрах или километрах. При видимости от 1 до 10 км при отсутствии осадков обычно наблюдается дымка, при ухудшении видимости до 1 км и менее - туман. В сухую погоду видимость может ухудшаться дымом, пылью или мглою.
  • Явления - указаны атмосферные явления, наблюдавшиеся в срок или в последний час перед сроком; фигурными скобками обозначены явления, наблюдавшиеся между сроками (за 1-3 часа до срока); квадратными скобками обозначены град или гололедные отложения с указанием их диаметра в мм.
  • Облачность - указаны через наклонную черту общая и нижняя облачность в баллах и высота нижней границы облаков в метрах; квадратными скобками обозначены формы облаков: Ci - перистые, Cs - перисто-слоистые, Cc - перисто-кучевые, Ac - высококучевые, As - высокослоистые, Sc - слоисто-кучевые, Ns - слоисто-дождевые, Cu - кучевые, Cb - кучево-дождевые. Подробнее классификацию облаков см. в Атласе облаков (PDF).
  • T - Температура воздуха - температура, измеренная на высоте 2 м над землей.
  • Td - Температура точки росы - температура, при понижении до которой содержащийся в воздухе водяной пар достигнет насыщения.
  • f - Относительная влажность воздуха - влажноcть воздуха, измеренная на высоте 2 м над землей.
  • Te - Эффективная температура - температура, которую ощущает одетый по сезону человек в тени. Характеристика душности погоды. При расчете учитывается влияние влажности воздуха и скорости ветра на теплоощущения человека.
  • Tes - Эффективная температура на солнце - температура, которую ощущает человек, с поправкой на солнечный нагрев. Характеристика знойности погоды. Зависит от высоты солнца над горизонтом, облачности и скорости ветра. Ночью, в пасмурную погоду, а также при ветре 12 м/с и более поправка равна нулю.
  • P - Атмосферное давление - приведенное к уровню моря атмосферное давление.
  • Po - Атмосферное давление - измеренное на уровне метеостанции атмосферное давление.
  • Tmin - Минимальная температура - минимум температуры воздуха на высоте 2 м над землей.
  • Tmax - Максимальная температура - максимум температуры воздуха на высоте 2 м над землей.
  • R - Количество осадков - Количество выпавших осадков за период времени, мм. При наведении курсора мыши на число - период времени, за который выпало указанное количество осадков.
  • R24 - Количество осадков - Количество выпавших осадков за 24 часа, мм.
  • S - Снежный покров - Высота снежного покрова, см. При наведении курсора мыши на число - состояние снежного покрова и степень покрытия местности в баллах.